GFSGBSN_prec_precacc24_237.txt.gz
Total_Precipitation_Accumulation
0.04 0.02 0.01 0.01 0.01 0.00 0.00 0.00 0.00 0.00 0.00 0.00 0.00 0.00 0.00 0.00 0.00 0.00 0.00 0.00 0.00 0.00 0.00 0.00 0.00 0.00 0.00 0.00 0.00 0.00 0.00 0.00 0.00 0.00 0.00 0.00 0.00 0.00 0.00 0.00 0.00 0.00 0.00 0.00 0.00 0.00 0.00
0.03 0.03 0.02 0.01 0.01 0.01 0.00 0.00 0.00 0.00 0.00 0.00 0.00 0.00 0.00 0.00 0.00 0.00 0.00 0.00 0.00 0.00 0.00 0.00 0.00 0.00 0.00 0.00 0.00 0.00 0.00 0.00 0.00 0.00 0.00 0.00 0.00 0.00 0.00 0.00 0.00 0.00 0.00 0.00 0.00 0.00 0.00
0.02 0.01 0.01 0.01 0.01 0.00 0.00 0.00 0.00 0.00 0.00 0.00 0.00 0.00 0.00 0.00 0.00 0.00 0.00 0.00 0.00 0.00 0.00 0.00 0.00 0.00 0.00 0.00 0.00 0.00 0.00 0.00 0.00 0.00 0.00 0.00 0.00 0.00 0.00 0.00 0.00 0.00 0.00 0.00 0.00 0.00 0.00
0.05 0.03 0.01 0.01 0.00 0.00 0.00 0.00 0.00 0.00 0.00 0.00 0.00 0.00 0.00 0.00 0.00 0.00 0.00 0.00 0.00 0.00 0.00 0.00 0.00 0.00 0.00 0.00 0.00 0.00 0.00 0.00 0.00 0.00 0.00 0.00 0.00 0.00 0.00 0.00 0.00 0.00 0.00 0.00 0.00 0.00 0.00
0.07 0.08 0.05 0.03 0.02 0.01 0.00 0.00 0.00 0.00 0.00 0.00 0.00 0.00 0.00 0.00 0.00 0.00 0.00 0.00 0.00 0.00 0.00 0.00 0.00 0.00 0.00 0.00 0.00 0.00 0.00 0.00 0.00 0.00 0.00 0.00 0.00 0.00 0.00 0.00 0.00 0.00 0.00 0.00 0.00 0.00 0.00
0.08 0.07 0.07 0.06 0.03 0.02 0.01 0.01 0.00 0.00 0.00 0.00 0.00 0.00 0.00 0.00 0.00 0.00 0.00 0.00 0.00 0.00 0.00 0.00 0.00 0.00 0.00 0.00 0.00 0.00 0.00 0.00 0.00 0.00 0.00 0.00 0.00 0.00 0.00 0.00 0.00 0.00 0.00 0.00 0.00 0.00 0.00
0.09 0.09 0.08 0.07 0.08 0.05 0.02 0.01 0.01 0.00 0.00 0.00 0.00 0.00 0.00 0.00 0.00 0.00 0.00 0.00 0.00 0.00 0.00 0.00 0.00 0.00 0.00 0.00 0.00 0.00 0.00 0.00 0.00 0.00 0.00 0.00 0.00 0.00 0.00 0.00 0.00 0.00 0.00 0.00 0.00 0.00 0.00
0.07 0.09 0.09 0.08 0.07 0.09 0.07 0.04 0.02 0.01 0.00 0.00 0.00 0.00 0.00 0.00 0.00 0.00 0.00 0.00 0.00 0.00 0.00 0.00 0.00 0.00 0.00 0.00 0.00 0.00 0.00 0.00 0.00 0.00 0.00 0.00 0.00 0.00 0.00 0.00 0.00 0.00 0.00 0.00 0.00 0.00 0.00
0.14 0.06 0.07 0.09 0.09 0.08 0.08 0.09 0.06 0.03 0.01 0.01 0.01 0.00 0.00 0.00 0.00 0.00 0.00 0.00 0.00 0.00 0.00 0.00 0.00 0.00 0.00 0.00 0.00 0.00 0.00 0.00 0.00 0.00 0.00 0.00 0.00 0.00 0.00 0.00 0.00 0.00 0.00 0.00 0.00 0.00 0.00
0.18 0.16 0.08 0.06 0.09 0.10 0.08 0.07 0.09 0.09 0.05 0.03 0.01 0.01 0.00 0.00 0.00 0.00 0.00 0.00 0.00 0.00 0.00 0.00 0.00 0.00 0.00 0.00 0.00 0.00 0.00 0.00 0.00 0.00 0.00 0.00 0.00 0.00 0.00 0.00 0.00 0.00 0.00 0.00 0.00 0.00 0.00
0.14 0.13 0.14 0.08 0.06 0.10 0.10 0.09 0.07 0.09 0.11 0.06 0.03 0.01 0.00 0.00 0.00 0.00 0.00 0.00 0.00 0.00 0.00 0.00 0.00 0.00 0.00 0.00 0.00 0.00 0.00 0.00 0.00 0.00 0.00 0.00 0.00 0.00 0.00 0.00 0.00 0.00 0.00 0.00 0.00 0.00 0.00
0.70 0.24 0.10 0.10 0.08 0.06 0.10 0.11 0.11 0.08 0.08 0.12 0.09 0.03 0.00 0.00 0.00 0.00 0.00 0.00 0.00 0.00 0.00 0.00 0.00 0.00 0.00 0.00 0.00 0.00 0.00 0.00 0.00 0.00 0.00 0.00 0.00 0.00 0.00 0.00 0.00 0.00 0.00 0.00 0.00 0.00 0.00
1.41 0.97 0.52 0.16 0.08 0.09 0.05 0.09 0.13 0.12 0.09 0.11 0.16 0.08 0.03 0.00 0.00 0.00 0.00 0.00 0.00 0.00 0.00 0.00 0.00 0.00 0.00 0.00 0.00 0.00 0.00 0.00 0.00 0.00 0.00 0.00 0.00 0.00 0.00 0.00 0.00 0.00 0.00 0.00 0.00 0.00 0.00
1.63 1.36 0.90 0.72 0.41 0.15 0.11 0.08 0.09 0.16 0.15 0.14 0.19 0.16 0.04 0.00 0.00 0.00 0.02 0.00 0.00 0.00 0.00 0.00 0.00 0.00 0.00 0.00 0.00 0.00 0.00 0.00 0.00 0.00 0.00 0.00 0.00 0.00 0.00 0.00 0.00 0.00 0.00 0.00 0.00 0.00 0.00
1.24 1.33 1.15 0.87 0.72 0.57 0.30 0.15 0.13 0.16 0.24 0.24 0.33 0.29 0.11 0.00 0.00 0.04 0.07 0.01 0.00 0.00 0.00 0.00 0.00 0.00 0.00 0.00 0.00 0.00 0.00 0.00 0.00 0.00 0.00 0.00 0.00 0.00 0.00 0.00 0.00 0.00 0.00 0.00 0.00 0.00 0.00
1.31 1.16 1.27 0.90 0.82 0.71 0.58 0.44 0.30 0.31 0.39 0.60 0.85 0.85 0.31 0.01 0.04 0.16 0.20 0.01 0.00 0.00 0.00 0.00 0.00 0.00 0.00 0.00 0.00 0.00 0.00 0.00 0.00 0.00 0.00 0.00 0.00 0.00 0.00 0.00 0.00 0.00 0.00 0.00 0.00 0.00 0.00
0.91 1.23 1.25 1.36 0.92 0.78 0.76 0.69 0.68 0.71 0.86 1.21 2.17 2.04 0.71 0.10 0.30 0.44 0.14 0.00 0.00 0.00 0.00 0.00 0.00 0.00 0.00 0.00 0.00 0.00 0.00 0.00 0.00 0.00 0.00 0.00 0.00 0.00 0.00 0.00 0.00 0.00 0.00 0.00 0.00 0.00 0.00
0.61 0.80 1.03 1.25 1.39 1.00 0.89 0.81 0.92 1.18 1.40 2.48 3.89 3.06 1.15 0.53 1.77 1.11 0.13 0.00 0.00 0.00 0.00 0.00 0.00 0.00 0.00 0.00 0.00 0.00 0.00 0.00 0.00 0.00 0.00 0.00 0.00 0.00 0.00 0.00 0.00 0.00 0.00 0.00 0.00 0.00 0.00
0.44 0.63 0.71 0.80 1.18 1.41 0.98 0.94 0.97 1.35 1.89 2.64 3.56 3.22 2.51 1.22 1.69 1.09 0.18 0.01 0.00 0.00 0.00 0.00 0.00 0.00 0.00 0.00 0.00 0.00 0.00 0.00 0.00 0.00 0.00 0.00 0.00 0.00 0.00 0.00 0.00 0.00 0.00 0.00 0.00 0.00 0.00
0.46 0.49 0.58 0.67 0.79 1.25 1.34 1.21 1.09 1.19 1.82 2.99 3.49 3.33 3.70 3.78 1.45 0.68 0.14 0.04 0.01 0.00 0.00 0.00 0.00 0.00 0.00 0.00 0.00 0.00 0.00 0.00 0.00 0.00 0.00 0.00 0.03 0.01 0.00 0.00 0.00 0.00 0.00 0.00 0.00 0.00 0.00
0.39 0.44 0.51 0.58 0.71 0.82 1.27 1.36 1.34 1.32 1.68 3.46 4.11 3.36 2.36 2.28 1.47 0.49 0.19 0.10 0.04 0.02 0.01 0.00 0.01 0.00 0.00 0.00 0.00 0.00 0.00 0.00 0.00 0.00 0.00 0.01 0.06 0.01 0.00 0.00 0.00 0.00 0.00 0.00 0.02 0.02 0.00
0.28 0.35 0.48 0.56 0.59 0.78 1.00 1.28 1.42 1.54 2.28 3.86 3.65 2.28 1.52 0.95 0.48 0.38 0.29 0.16 0.06 0.02 0.03 0.03 0.01 0.00 0.00 0.00 0.00 0.00 0.00 0.03 0.05 0.05 0.05 0.09 0.13 0.06 0.03 0.00 0.00 0.00 0.00 0.00 0.00 0.00 0.00
0.32 0.35 0.44 0.52 0.56 0.71 0.80 1.02 1.24 1.67 3.04 4.06 2.91 1.41 0.72 0.56 0.39 0.59 0.71 0.21 0.06 0.04 0.05 0.02 0.01 0.01 0.04 0.04 0.00 0.01 0.08 0.24 0.15 0.11 0.14 0.14 0.19 0.21 0.25 0.03 0.08 0.23 0.01 0.00 0.00 0.00 0.00
0.23 0.35 0.45 0.55 0.61 0.67 0.81 0.86 1.02 1.62 2.90 3.35 1.97 0.98 0.76 0.72 0.46 0.37 0.18 0.05 0.02 0.06 0.16 0.14 0.08 0.19 0.18 0.07 0.14 0.42 0.59 0.45 0.31 0.27 0.18 0.22 0.27 0.46 0.68 0.45 0.89 0.25 0.00 0.00 0.00 0.00 0.00
0.18 0.24 0.33 0.54 0.63 0.67 0.78 0.85 0.95 1.26 2.12 2.85 1.72 1.09 1.03 0.79 0.45 0.24 0.12 0.09 0.07 0.09 0.22 0.38 0.32 0.29 0.14 0.31 1.09 1.62 1.24 0.86 0.61 0.38 0.21 0.16 0.27 0.88 1.25 1.03 0.56 0.05 0.00 0.00 0.00 0.00 0.00
0.11 0.22 0.29 0.46 0.62 0.61 0.75 0.88 0.87 1.01 1.47 2.01 1.79 1.28 1.40 1.06 0.63 0.21 0.13 0.16 0.27 0.28 0.29 0.34 0.27 0.29 0.40 0.87 1.69 1.92 1.14 0.48 0.23 0.12 0.05 0.05 0.16 0.80 1.97 1.44 0.63 0.05 0.00 0.00 0.00 0.00 0.00
0.09 0.18 0.30 0.40 0.51 0.62 0.71 0.85 0.84 0.88 1.01 1.05 1.27 0.96 1.33 1.35 0.69 0.27 0.31 0.23 0.28 0.39 0.50 0.41 0.27 0.54 0.98 1.59 2.06 1.73 0.94 0.35 0.20 0.07 0.01 0.07 0.25 0.67 1.02 1.14 0.67 0.03 0.00 0.00 0.00 0.00 0.00
0.10 0.12 0.19 0.34 0.41 0.60 0.65 0.69 0.81 0.80 0.84 0.76 0.74 0.53 1.01 1.29 0.76 0.39 0.43 0.45 0.34 0.37 0.68 0.70 0.50 0.80 1.17 1.76 2.31 2.07 1.19 0.57 0.21 0.04 0.01 0.06 0.18 0.32 0.32 0.74 0.78 0.04 0.00 0.00 0.00 0.00 0.00
0.07 0.10 0.15 0.28 0.32 0.41 0.55 0.50 0.68 0.77 0.83 0.73 0.58 0.47 0.51 1.09 0.96 0.35 0.36 0.44 0.54 0.62 0.71 0.98 0.95 0.78 0.72 0.96 1.43 1.18 1.07 0.72 0.33 0.15 0.04 0.17 0.19 0.11 0.14 0.18 0.03 0.00 0.01 0.01 0.00 0.00 0.00

GFSGBSN_prec_precacc24_243.txt.gz
Total_Precipitation_Accumulation
0.04 0.02 0.01 0.01 0.01 0.00 0.00 0.00 0.00 0.00 0.00 0.00 0.00 0.00 0.00 0.00 0.00 0.00 0.00 0.00 0.00 0.00 0.00 0.00 0.00 0.00 0.00 0.00 0.00 0.00 0.00 0.00 0.00 0.00 0.00 0.00 0.00 0.00 0.00 0.00 0.00 0.00 0.00 0.00 0.00 0.00 0.00
0.03 0.03 0.02 0.01 0.01 0.01 0.00 0.00 0.00 0.00 0.00 0.00 0.00 0.00 0.00 0.00 0.00 0.00 0.00 0.00 0.00 0.00 0.00 0.00 0.00 0.00 0.00 0.00 0.00 0.00 0.00 0.00 0.00 0.00 0.00 0.00 0.00 0.00 0.00 0.00 0.00 0.00 0.00 0.00 0.00 0.00 0.00
0.02 0.01 0.01 0.01 0.01 0.00 0.00 0.00 0.00 0.00 0.00 0.00 0.00 0.00 0.00 0.00 0.00 0.00 0.00 0.00 0.00 0.00 0.00 0.00 0.00 0.00 0.00 0.00 0.00 0.00 0.00 0.00 0.00 0.00 0.00 0.00 0.00 0.00 0.00 0.00 0.00 0.00 0.00 0.00 0.00 0.00 0.00
0.05 0.03 0.02 0.01 0.00 0.00 0.00 0.00 0.00 0.00 0.00 0.00 0.00 0.00 0.00 0.00 0.00 0.00 0.00 0.00 0.00 0.00 0.00 0.00 0.00 0.00 0.00 0.00 0.00 0.00 0.00 0.00 0.00 0.00 0.00 0.00 0.00 0.00 0.00 0.00 0.00 0.00 0.00 0.00 0.00 0.00 0.00
0.07 0.08 0.05 0.03 0.02 0.01 0.00 0.00 0.00 0.00 0.00 0.00 0.00 0.00 0.00 0.00 0.00 0.00 0.00 0.00 0.00 0.00 0.00 0.00 0.00 0.00 0.00 0.00 0.00 0.00 0.00 0.00 0.00 0.00 0.00 0.00 0.00 0.00 0.00 0.00 0.00 0.00 0.00 0.00 0.00 0.00 0.00
0.08 0.07 0.08 0.06 0.04 0.02 0.01 0.01 0.00 0.00 0.00 0.00 0.00 0.00 0.00 0.00 0.00 0.00 0.00 0.00 0.00 0.00 0.00 0.00 0.00 0.00 0.00 0.00 0.00 0.00 0.00 0.00 0.00 0.00 0.00 0.00 0.00 0.00 0.00 0.00 0.00 0.00 0.00 0.00 0.00 0.00 0.00
0.09 0.09 0.08 0.07 0.08 0.05 0.02 0.01 0.01 0.00 0.00 0.00 0.00 0.00 0.00 0.00 0.00 0.00 0.00 0.00 0.00 0.00 0.00 0.00 0.00 0.00 0.00 0.00 0.00 0.00 0.00 0.00 0.00 0.00 0.00 0.00 0.00 0.00 0.00 0.00 0.00 0.00 0.00 0.00 0.00 0.00 0.00
0.07 0.09 0.09 0.08 0.07 0.09 0.07 0.04 0.02 0.01 0.01 0.01 0.01 0.00 0.00 0.00 0.00 0.00 0.00 0.00 0.00 0.00 0.00 0.00 0.00 0.00 0.00 0.00 0.00 0.00 0.00 0.00 0.00 0.00 0.00 0.00 0.00 0.00 0.00 0.00 0.00 0.00 0.00 0.00 0.00 0.00 0.00
0.14 0.07 0.07 0.09 0.09 0.08 0.08 0.09 0.06 0.03 0.02 0.02 0.02 0.01 0.01 0.02 0.02 0.01 0.00 0.00 0.00 0.00 0.00 0.00 0.00 0.00 0.00 0.00 0.00 0.00 0.00 0.00 0.00 0.00 0.00 0.00 0.00 0.00 0.00 0.00 0.00 0.00 0.00 0.00 0.00 0.00 0.00
0.18 0.17 0.08 0.06 0.09 0.10 0.08 0.07 0.09 0.09 0.06 0.05 0.05 0.05 0.06 0.15 0.14 0.01 0.00 0.00 0.00 0.00 0.00 0.00 0.00 0.00 0.00 0.00 0.00 0.00 0.00 0.00 0.00 0.00 0.00 0.00 0.00 0.00 0.00 0.00 0.00 0.00 0.00 0.00 0.00 0.00 0.00
0.13 0.13 0.14 0.08 0.06 0.10 0.10 0.09 0.07 0.09 0.12 0.10 0.09 0.12 0.22 0.36 0.20 0.03 0.00 0.00 0.00 0.00 0.00 0.00 0.00 0.00 0.00 0.00 0.00 0.00 0.00 0.00 0.00 0.00 0.00 0.00 0.00 0.00 0.00 0.00 0.00 0.00 0.00 0.00 0.00 0.00 0.00
0.35 0.14 0.10 0.09 0.08 0.05 0.10 0.11 0.11 0.08 0.09 0.17 0.18 0.18 0.28 0.43 0.30 0.05 0.00 0.00 0.00 0.00 0.00 0.00 0.00 0.00 0.00 0.00 0.00 0.00 0.00 0.00 0.00 0.00 0.00 0.00 0.00 0.00 0.00 0.00 0.00 0.00 0.00 0.00 0.00 0.00 0.00
0.78 0.50 0.22 0.08 0.08 0.09 0.05 0.09 0.13 0.12 0.10 0.12 0.26 0.33 0.39 0.33 0.28 0.06 0.02 0.02 0.06 0.02 0.00 0.00 0.00 0.00 0.00 0.00 0.00 0.00 0.00 0.00 0.00 0.00 0.00 0.00 0.00 0.00 0.00 0.00 0.00 0.00 0.00 0.00 0.00 0.00 0.00
1.03 0.78 0.54 0.37 0.18 0.10 0.10 0.06 0.09 0.16 0.15 0.14 0.23 0.39 0.52 0.36 0.14 0.09 0.33 0.29 0.24 0.05 0.00 0.00 0.00 0.00 0.00 0.00 0.00 0.00 0.00 0.00 0.00 0.00 0.00 0.00 0.00 0.00 0.00 0.00 0.00 0.00 0.00 0.00 0.00 0.00 0.00
1.06 1.07 0.76 0.57 0.48 0.33 0.19 0.12 0.11 0.15 0.24 0.23 0.32 0.45 0.59 0.44 0.15 0.37 0.65 0.68 0.41 0.08 0.00 0.00 0.00 0.00 0.00 0.00 0.00 0.00 0.00 0.00 0.00 0.00 0.00 0.00 0.00 0.00 0.00 0.00 0.00 0.00 0.00 0.00 0.00 0.00 0.00
1.22 1.07 1.15 0.73 0.62 0.52 0.41 0.33 0.23 0.24 0.34 0.49 0.58 0.73 0.57 0.25 0.23 0.76 0.98 0.75 0.22 0.01 0.00 0.00 0.00 0.00 0.00 0.00 0.00 0.00 0.00 0.00 0.00 0.00 0.00 0.00 0.00 0.00 0.00 0.00 0.00 0.00 0.00 0.00 0.00 0.00 0.00
0.83 1.14 1.14 1.24 0.77 0.61 0.57 0.49 0.48 0.51 0.58 0.78 1.25 1.15 0.55 0.22 0.58 1.29 1.26 0.53 0.16 0.00 0.00 0.00 0.00 0.00 0.00 0.00 0.00 0.00 0.00 0.00 0.00 0.00 0.00 0.00 0.00 0.00 0.00 0.00 0.00 0.00 0.00 0.00 0.00 0.00 0.00
0.60 0.76 0.94 1.14 1.27 0.84 0.67 0.57 0.63 0.86 1.04 1.49 2.24 1.76 0.69 0.36 1.44 1.35 0.99 0.32 0.03 0.00 0.00 0.00 0.00 0.00 0.00 0.00 0.00 0.00 0.00 0.00 0.00 0.00 0.00 0.00 0.00 0.00 0.00 0.00 0.00 0.00 0.00 0.00 0.00 0.00 0.00
0.46 0.65 0.71 0.77 1.13 1.32 0.85 0.74 0.66 0.95 1.52 1.92 2.24 2.09 1.77 0.77 1.39 1.11 0.64 0.16 0.01 0.00 0.00 0.00 0.00 0.00 0.00 0.00 0.00 0.00 0.00 0.00 0.00 0.00 0.00 0.00 0.00 0.00 0.00 0.00 0.00 0.00 0.00 0.00 0.00 0.00 0.00
0.49 0.52 0.60 0.69 0.80 1.21 1.24 1.06 0.88 0.88 1.30 2.32 2.58 2.32 2.86 2.71 1.19 0.79 0.35 0.18 0.02 0.00 0.00 0.00 0.00 0.00 0.00 0.00 0.00 0.00 0.00 0.00 0.00 0.00 0.00 0.00 0.00 0.00 0.00 0.00 0.00 0.00 0.00 0.00 0.00 0.00 0.00
0.44 0.49 0.54 0.59 0.71 0.80 1.24 1.26 1.16 1.06 1.25 2.80 3.28 2.73 2.00 2.05 1.30 0.61 0.25 0.09 0.03 0.00 0.00 0.00 0.00 0.00 0.00 0.00 0.00 0.00 0.00 0.00 0.00 0.00 0.00 0.00 0.00 0.00 0.00 0.00 0.00 0.00 0.00 0.00 0.00 0.00 0.00
0.31 0.39 0.53 0.61 0.63 0.82 1.02 1.27 1.35 1.34 1.84 3.22 3.21 2.13 1.51 0.97 0.64 0.36 0.24 0.09 0.01 0.01 0.01 0.00 0.00 0.00 0.00 0.00 0.00 0.00 0.00 0.01 0.02 0.02 0.02 0.05 0.07 0.03 0.02 0.00 0.00 0.00 0.00 0.00 0.00 0.00 0.00
0.33 0.37 0.48 0.56 0.60 0.75 0.87 1.07 1.24 1.56 2.61 3.55 2.63 1.40 1.00 0.72 0.43 0.53 0.42 0.12 0.01 0.00 0.01 0.00 0.00 0.00 0.00 0.00 0.00 0.00 0.02 0.13 0.06 0.03 0.05 0.05 0.08 0.10 0.14 0.01 0.04 0.16 0.01 0.00 0.00 0.00 0.00
0.23 0.35 0.46 0.60 0.71 0.78 0.91 0.94 1.09 1.62 2.61 2.94 1.93 1.06 0.97 0.96 0.49 0.44 0.15 0.04 0.01 0.00 0.00 0.00 0.00 0.01 0.00 0.00 0.03 0.11 0.16 0.13 0.07 0.06 0.06 0.09 0.11 0.21 0.38 0.22 0.55 0.21 0.00 0.00 0.00 0.00 0.00
0.16 0.23 0.32 0.55 0.68 0.76 0.91 1.01 1.10 1.34 2.05 2.47 1.54 1.06 0.95 0.81 0.39 0.24 0.14 0.06 0.04 0.05 0.04 0.04 0.02 0.01 0.00 0.06 0.54 0.88 0.57 0.34 0.16 0.05 0.04 0.06 0.13 0.49 0.71 0.57 0.35 0.03 0.00 0.00 0.00 0.00 0.00
0.11 0.23 0.32 0.51 0.72 0.73 0.88 0.98 1.03 1.21 1.54 2.02 1.60 1.03 1.08 0.88 0.47 0.15 0.12 0.13 0.17 0.17 0.17 0.14 0.08 0.04 0.12 0.44 1.13 1.33 0.75 0.29 0.09 0.03 0.01 0.01 0.06 0.44 1.28 0.93 0.42 0.04 0.00 0.00 0.00 0.00 0.00
0.09 0.18 0.33 0.50 0.68 0.81 0.90 1.01 0.95 0.97 1.08 1.31 1.46 0.80 0.94 1.06 0.59 0.20 0.23 0.21 0.21 0.30 0.32 0.21 0.13 0.24 0.53 1.08 1.50 1.20 0.60 0.19 0.06 0.01 0.00 0.02 0.09 0.35 0.75 0.80 0.41 0.02 0.00 0.00 0.00 0.00 0.00
0.05 0.09 0.21 0.47 0.64 0.86 0.94 0.98 1.02 0.85 0.83 0.94 1.11 0.62 0.82 1.02 0.75 0.38 0.36 0.37 0.30 0.30 0.49 0.51 0.41 0.65 0.80 1.27 1.71 1.58 0.87 0.38 0.10 0.01 0.01 0.05 0.08 0.12 0.16 0.39 0.52 0.04 0.00 0.00 0.00 0.00 0.00
0.04 0.06 0.17 0.41 0.57 0.72 0.96 0.93 1.00 0.87 0.88 0.83 0.93 0.66 0.59 0.95 0.97 0.50 0.38 0.42 0.45 0.51 0.57 0.78 0.79 0.68 0.67 0.84 1.12 0.87 0.69 0.41 0.17 0.06 0.02 0.15 0.16 0.06 0.05 0.11 0.03 0.00 0.01 0.02 0.00 0.00 0.00

GFSGBSN_prec_precacc24_246.txt.gz
Total_Precipitation_Accumulation
0.04 0.02 0.01 0.01 0.01 0.00 0.00 0.00 0.00 0.00 0.00 0.00 0.00 0.00 0.00 0.00 0.00 0.00 0.00 0.00 0.00 0.00 0.00 0.00 0.00 0.00 0.00 0.00 0.00 0.00 0.00 0.00 0.00 0.00 0.00 0.00 0.00 0.00 0.00 0.00 0.00 0.00 0.00 0.00 0.00 0.00 0.00
0.03 0.03 0.02 0.01 0.01 0.01 0.00 0.00 0.00 0.00 0.00 0.00 0.00 0.00 0.00 0.00 0.00 0.00 0.00 0.00 0.00 0.00 0.00 0.00 0.00 0.00 0.00 0.00 0.00 0.00 0.00 0.00 0.00 0.00 0.00 0.00 0.00 0.00 0.00 0.00 0.00 0.00 0.00 0.00 0.00 0.00 0.00
0.02 0.01 0.01 0.01 0.01 0.00 0.00 0.00 0.00 0.00 0.00 0.00 0.00 0.00 0.00 0.00 0.00 0.00 0.00 0.00 0.00 0.00 0.00 0.00 0.00 0.00 0.00 0.00 0.00 0.00 0.00 0.00 0.00 0.00 0.00 0.00 0.00 0.00 0.00 0.00 0.00 0.00 0.00 0.00 0.00 0.00 0.00
0.05 0.03 0.02 0.01 0.00 0.00 0.00 0.00 0.00 0.00 0.00 0.00 0.00 0.00 0.00 0.00 0.00 0.00 0.00 0.00 0.00 0.00 0.00 0.00 0.00 0.00 0.00 0.00 0.00 0.00 0.00 0.00 0.00 0.00 0.00 0.00 0.00 0.00 0.00 0.00 0.00 0.00 0.00 0.00 0.00 0.00 0.00
0.07 0.08 0.05 0.03 0.02 0.01 0.00 0.00 0.00 0.00 0.00 0.00 0.00 0.00 0.00 0.00 0.00 0.00 0.00 0.00 0.00 0.00 0.00 0.00 0.00 0.00 0.00 0.00 0.00 0.00 0.00 0.00 0.00 0.00 0.00 0.00 0.00 0.00 0.00 0.00 0.00 0.00 0.00 0.00 0.00 0.00 0.00
0.08 0.07 0.08 0.06 0.04 0.02 0.01 0.01 0.00 0.00 0.00 0.00 0.00 0.00 0.00 0.00 0.00 0.00 0.00 0.00 0.00 0.00 0.00 0.00 0.00 0.00 0.00 0.00 0.00 0.00 0.00 0.00 0.00 0.00 0.00 0.00 0.00 0.00 0.00 0.00 0.00 0.00 0.00 0.00 0.00 0.00 0.00
0.09 0.09 0.08 0.07 0.08 0.05 0.02 0.01 0.01 0.00 0.00 0.00 0.00 0.00 0.00 0.00 0.00 0.01 0.00 0.00 0.00 0.00 0.00 0.00 0.00 0.00 0.00 0.00 0.00 0.00 0.00 0.00 0.00 0.00 0.00 0.00 0.00 0.00 0.00 0.00 0.00 0.00 0.00 0.00 0.00 0.00 0.00
0.07 0.09 0.09 0.08 0.07 0.09 0.07 0.04 0.02 0.01 0.01 0.01 0.01 0.00 0.00 0.00 0.01 0.02 0.01 0.00 0.00 0.00 0.00 0.00 0.00 0.00 0.00 0.00 0.00 0.00 0.00 0.00 0.00 0.00 0.00 0.00 0.00 0.00 0.00 0.00 0.00 0.00 0.00 0.00 0.00 0.00 0.00
0.14 0.07 0.07 0.09 0.09 0.08 0.08 0.09 0.06 0.03 0.02 0.02 0.02 0.01 0.01 0.02 0.06 0.04 0.00 0.00 0.00 0.00 0.00 0.00 0.00 0.00 0.00 0.00 0.00 0.00 0.00 0.00 0.00 0.00 0.00 0.00 0.00 0.00 0.00 0.00 0.00 0.00 0.00 0.00 0.00 0.00 0.00
0.18 0.17 0.08 0.06 0.09 0.10 0.08 0.07 0.09 0.09 0.06 0.05 0.05 0.05 0.06 0.16 0.23 0.05 0.01 0.00 0.00 0.00 0.00 0.00 0.00 0.00 0.00 0.00 0.00 0.00 0.00 0.00 0.00 0.00 0.00 0.00 0.00 0.00 0.00 0.00 0.00 0.00 0.00 0.00 0.00 0.00 0.00
0.12 0.13 0.14 0.08 0.06 0.10 0.10 0.09 0.07 0.09 0.12 0.10 0.09 0.12 0.22 0.37 0.28 0.15 0.01 0.00 0.00 0.01 0.01 0.00 0.00 0.00 0.00 0.00 0.00 0.00 0.00 0.00 0.00 0.00 0.00 0.00 0.00 0.00 0.00 0.00 0.00 0.00 0.00 0.00 0.00 0.00 0.00
0.22 0.12 0.10 0.10 0.08 0.05 0.10 0.11 0.11 0.08 0.09 0.17 0.18 0.18 0.28 0.43 0.31 0.07 0.02 0.04 0.14 0.18 0.08 0.00 0.00 0.00 0.00 0.00 0.00 0.00 0.00 0.00 0.00 0.00 0.00 0.00 0.00 0.00 0.00 0.00 0.00 0.00 0.00 0.00 0.00 0.00 0.00
0.57 0.18 0.09 0.07 0.08 0.09 0.05 0.09 0.13 0.12 0.10 0.12 0.26 0.33 0.39 0.34 0.28 0.08 0.18 0.27 0.46 0.50 0.09 0.00 0.00 0.00 0.00 0.00 0.00 0.00 0.00 0.00 0.00 0.00 0.00 0.00 0.00 0.00 0.00 0.00 0.00 0.00 0.00 0.00 0.00 0.00 0.00
0.85 0.63 0.21 0.13 0.08 0.09 0.10 0.06 0.09 0.16 0.15 0.14 0.23 0.39 0.52 0.36 0.14 0.14 0.62 0.84 0.68 0.35 0.07 0.00 0.00 0.00 0.00 0.00 0.00 0.00 0.00 0.00 0.00 0.00 0.00 0.00 0.00 0.00 0.00 0.00 0.00 0.00 0.00 0.00 0.00 0.00 0.00
0.84 0.80 0.54 0.24 0.17 0.13 0.12 0.11 0.10 0.14 0.24 0.23 0.32 0.44 0.58 0.44 0.15 0.40 0.89 1.31 0.84 0.21 0.01 0.00 0.00 0.00 0.00 0.00 0.00 0.00 0.00 0.00 0.00 0.00 0.00 0.00 0.00 0.00 0.00 0.00 0.00 0.00 0.00 0.00 0.00 0.00 0.00
1.05 0.88 0.91 0.49 0.31 0.18 0.17 0.18 0.16 0.18 0.27 0.45 0.56 0.71 0.54 0.25 0.23 0.78 1.18 1.12 0.46 0.03 0.00 0.00 0.00 0.00 0.00 0.00 0.00 0.00 0.00 0.00 0.00 0.00 0.00 0.00 0.00 0.00 0.00 0.00 0.00 0.00 0.00 0.00 0.00 0.00 0.00
0.79 1.05 1.01 1.04 0.62 0.39 0.32 0.29 0.33 0.42 0.43 0.50 0.89 0.93 0.52 0.21 0.54 1.28 1.40 0.69 0.24 0.01 0.00 0.00 0.00 0.00 0.00 0.00 0.00 0.00 0.00 0.00 0.00 0.00 0.00 0.00 0.00 0.00 0.00 0.00 0.00 0.00 0.00 0.00 0.00 0.00 0.00
0.59 0.75 0.90 1.07 1.14 0.73 0.61 0.48 0.47 0.70 0.89 1.09 1.34 1.17 0.49 0.32 1.07 1.13 1.01 0.40 0.05 0.00 0.00 0.00 0.00 0.00 0.00 0.00 0.00 0.00 0.00 0.00 0.00 0.00 0.00 0.00 0.00 0.00 0.00 0.00 0.00 0.00 0.00 0.00 0.00 0.00 0.00
0.46 0.64 0.70 0.76 1.10 1.23 0.76 0.71 0.62 0.82 1.34 1.43 1.44 1.28 1.18 0.60 1.00 0.96 0.63 0.19 0.02 0.00 0.00 0.00 0.00 0.00 0.00 0.00 0.00 0.00 0.00 0.00 0.00 0.00 0.00 0.00 0.00 0.00 0.00 0.00 0.00 0.00 0.00 0.00 0.00 0.00 0.00
0.49 0.52 0.60 0.69 0.80 1.22 1.23 1.04 0.87 0.84 1.24 2.06 1.90 1.63 1.99 1.82 0.86 0.67 0.35 0.19 0.05 0.00 0.00 0.00 0.00 0.00 0.00 0.00 0.00 0.00 0.00 0.00 0.00 0.00 0.00 0.00 0.00 0.00 0.00 0.00 0.00 0.00 0.00 0.00 0.00 0.00 0.00
0.44 0.50 0.54 0.60 0.72 0.81 1.24 1.25 1.17 1.09 1.21 2.56 2.72 2.12 1.52 1.51 0.98 0.57 0.25 0.10 0.05 0.02 0.01 0.01 0.01 0.00 0.00 0.00 0.00 0.00 0.00 0.00 0.00 0.00 0.00 0.00 0.00 0.00 0.00 0.00 0.00 0.00 0.00 0.00 0.00 0.00 0.00
0.31 0.40 0.54 0.61 0.63 0.82 1.03 1.27 1.34 1.31 1.74 3.11 2.90 1.85 1.22 0.75 0.55 0.34 0.22 0.10 0.05 0.02 0.03 0.04 0.02 0.00 0.00 0.00 0.00 0.00 0.00 0.01 0.01 0.00 0.00 0.01 0.00 0.00 0.00 0.00 0.00 0.00 0.00 0.00 0.00 0.00 0.00
0.34 0.38 0.48 0.57 0.61 0.76 0.88 1.08 1.24 1.54 2.45 3.59 2.60 1.23 0.91 0.64 0.36 0.45 0.34 0.11 0.01 0.01 0.03 0.03 0.03 0.01 0.00 0.00 0.00 0.00 0.02 0.11 0.04 0.01 0.01 0.01 0.01 0.02 0.02 0.00 0.02 0.07 0.01 0.00 0.00 0.00 0.00
0.22 0.34 0.46 0.60 0.71 0.79 0.92 0.94 1.09 1.61 2.50 2.87 1.94 0.99 0.90 0.85 0.41 0.38 0.13 0.03 0.01 0.00 0.01 0.01 0.01 0.01 0.00 0.00 0.01 0.07 0.12 0.09 0.03 0.01 0.00 0.02 0.03 0.07 0.14 0.12 0.31 0.07 0.00 0.00 0.00 0.00 0.00
0.16 0.24 0.32 0.55 0.68 0.76 0.91 1.01 1.10 1.36 2.04 2.44 1.55 0.99 0.87 0.74 0.32 0.19 0.11 0.06 0.05 0.05 0.04 0.02 0.02 0.01 0.00 0.03 0.33 0.60 0.39 0.22 0.08 0.00 0.00 0.01 0.05 0.31 0.41 0.31 0.18 0.01 0.00 0.00 0.00 0.00 0.00
0.12 0.25 0.34 0.53 0.73 0.74 0.88 0.99 1.03 1.21 1.57 2.04 1.70 0.96 0.91 0.79 0.41 0.11 0.11 0.10 0.14 0.18 0.16 0.10 0.06 0.03 0.09 0.35 0.93 1.14 0.61 0.22 0.05 0.01 0.00 0.00 0.03 0.28 0.82 0.56 0.21 0.02 0.00 0.00 0.00 0.00 0.00
0.11 0.21 0.36 0.53 0.71 0.85 0.92 1.03 0.96 0.97 1.13 1.44 1.58 0.80 0.73 0.85 0.47 0.16 0.16 0.16 0.17 0.25 0.33 0.20 0.12 0.22 0.49 0.97 1.34 1.04 0.47 0.13 0.03 0.00 0.00 0.01 0.04 0.23 0.47 0.50 0.23 0.01 0.00 0.00 0.00 0.00 0.00
0.07 0.10 0.22 0.48 0.65 0.88 0.96 1.00 1.03 0.85 0.82 1.07 1.46 0.85 0.67 0.83 0.63 0.31 0.27 0.26 0.23 0.27 0.48 0.47 0.39 0.59 0.78 1.23 1.57 1.34 0.69 0.27 0.06 0.00 0.01 0.04 0.07 0.09 0.12 0.26 0.32 0.02 0.00 0.00 0.00 0.00 0.00
0.06 0.05 0.15 0.41 0.58 0.74 0.99 0.96 1.02 0.88 0.84 0.83 1.01 0.96 0.79 0.78 0.84 0.47 0.32 0.35 0.38 0.44 0.48 0.66 0.83 0.63 0.72 0.88 0.98 0.73 0.54 0.28 0.10 0.03 0.02 0.15 0.16 0.05 0.04 0.09 0.02 0.00 0.01 0.02 0.00 0.00 0.00

GFSGBSN_prec_precacc24_249.txt.gz
Total_Precipitation_Accumulation
0.04 0.02 0.01 0.01 0.01 0.00 0.00 0.00 0.00 0.00 0.00 0.00 0.00 0.00 0.00 0.00 0.00 0.00 0.00 0.00 0.00 0.00 0.00 0.00 0.00 0.00 0.00 0.00 0.00 0.00 0.00 0.00 0.00 0.00 0.00 0.00 0.00 0.00 0.00 0.00 0.00 0.00 0.00 0.00 0.00 0.00 0.00
0.03 0.03 0.02 0.01 0.01 0.01 0.00 0.00 0.00 0.00 0.00 0.00 0.00 0.00 0.00 0.00 0.00 0.00 0.00 0.00 0.00 0.00 0.00 0.00 0.00 0.00 0.00 0.00 0.00 0.00 0.00 0.00 0.00 0.00 0.00 0.00 0.00 0.00 0.00 0.00 0.00 0.00 0.00 0.00 0.00 0.00 0.00
0.02 0.01 0.01 0.01 0.01 0.00 0.00 0.00 0.00 0.00 0.00 0.00 0.00 0.00 0.00 0.00 0.00 0.00 0.00 0.00 0.00 0.00 0.00 0.00 0.00 0.00 0.00 0.00 0.00 0.00 0.00 0.00 0.00 0.00 0.00 0.00 0.00 0.00 0.00 0.00 0.00 0.00 0.00 0.00 0.00 0.00 0.00
0.05 0.03 0.02 0.01 0.00 0.00 0.00 0.00 0.00 0.00 0.00 0.00 0.00 0.00 0.00 0.00 0.00 0.00 0.00 0.00 0.00 0.00 0.00 0.00 0.00 0.00 0.00 0.00 0.00 0.00 0.00 0.00 0.00 0.00 0.00 0.00 0.00 0.00 0.00 0.00 0.00 0.00 0.00 0.00 0.00 0.00 0.00
0.07 0.08 0.05 0.03 0.02 0.01 0.00 0.00 0.00 0.00 0.00 0.00 0.00 0.00 0.00 0.00 0.00 0.00 0.00 0.00 0.00 0.00 0.00 0.00 0.00 0.00 0.00 0.00 0.00 0.00 0.00 0.00 0.00 0.00 0.00 0.00 0.00 0.00 0.00 0.00 0.00 0.00 0.00 0.00 0.00 0.00 0.00
0.09 0.07 0.08 0.06 0.04 0.02 0.01 0.01 0.00 0.00 0.00 0.00 0.00 0.00 0.00 0.00 0.00 0.00 0.00 0.00 0.00 0.00 0.00 0.00 0.00 0.00 0.00 0.00 0.00 0.00 0.00 0.00 0.00 0.00 0.00 0.00 0.00 0.00 0.00 0.00 0.00 0.00 0.00 0.00 0.00 0.00 0.00
0.10 0.09 0.08 0.07 0.08 0.05 0.02 0.01 0.01 0.00 0.00 0.00 0.00 0.00 0.00 0.00 0.00 0.01 0.00 0.00 0.00 0.00 0.00 0.00 0.00 0.00 0.00 0.00 0.00 0.00 0.00 0.00 0.00 0.00 0.00 0.00 0.00 0.00 0.00 0.00 0.00 0.00 0.00 0.00 0.00 0.00 0.00
0.07 0.09 0.09 0.08 0.07 0.09 0.07 0.04 0.02 0.01 0.01 0.01 0.01 0.00 0.00 0.00 0.01 0.02 0.01 0.00 0.00 0.00 0.00 0.00 0.00 0.00 0.00 0.00 0.00 0.00 0.00 0.00 0.00 0.00 0.00 0.00 0.00 0.00 0.00 0.00 0.00 0.00 0.00 0.00 0.00 0.00 0.00
0.14 0.07 0.07 0.09 0.09 0.08 0.08 0.09 0.06 0.03 0.02 0.02 0.02 0.01 0.01 0.02 0.06 0.04 0.00 0.00 0.00 0.00 0.00 0.00 0.00 0.00 0.00 0.00 0.00 0.00 0.00 0.00 0.00 0.00 0.00 0.00 0.00 0.00 0.00 0.00 0.00 0.00 0.00 0.00 0.00 0.00 0.00
0.18 0.16 0.08 0.06 0.09 0.10 0.08 0.07 0.09 0.09 0.06 0.05 0.05 0.05 0.06 0.16 0.23 0.05 0.01 0.01 0.04 0.03 0.01 0.00 0.00 0.00 0.00 0.00 0.00 0.00 0.00 0.00 0.00 0.00 0.00 0.00 0.00 0.00 0.00 0.00 0.00 0.00 0.00 0.00 0.00 0.00 0.00
0.12 0.12 0.14 0.08 0.06 0.10 0.10 0.09 0.07 0.09 0.12 0.10 0.09 0.12 0.22 0.37 0.28 0.16 0.03 0.01 0.09 0.11 0.23 0.03 0.00 0.00 0.00 0.00 0.00 0.00 0.00 0.00 0.00 0.00 0.00 0.00 0.00 0.00 0.00 0.00 0.00 0.00 0.00 0.00 0.00 0.00 0.00
0.17 0.11 0.10 0.10 0.08 0.05 0.10 0.11 0.11 0.08 0.09 0.17 0.18 0.18 0.28 0.43 0.31 0.07 0.02 0.09 0.23 0.36 0.38 0.03 0.00 0.00 0.00 0.00 0.00 0.00 0.00 0.00 0.00 0.00 0.00 0.00 0.00 0.00 0.00 0.00 0.00 0.00 0.00 0.00 0.00 0.00 0.00
0.40 0.15 0.07 0.06 0.08 0.09 0.05 0.09 0.13 0.12 0.10 0.12 0.26 0.33 0.40 0.34 0.28 0.08 0.18 0.38 0.54 0.61 0.22 0.02 0.00 0.00 0.00 0.00 0.00 0.00 0.00 0.00 0.00 0.00 0.00 0.00 0.00 0.00 0.00 0.00 0.00 0.00 0.00 0.00 0.00 0.00 0.00
0.51 0.51 0.14 0.07 0.06 0.09 0.10 0.06 0.09 0.16 0.15 0.14 0.23 0.39 0.52 0.37 0.14 0.14 0.62 0.94 0.83 0.37 0.10 0.01 0.00 0.00 0.00 0.00 0.00 0.00 0.00 0.00 0.00 0.00 0.00 0.00 0.00 0.00 0.00 0.00 0.00 0.00 0.00 0.00 0.00 0.00 0.00
0.37 0.65 0.48 0.19 0.09 0.07 0.10 0.11 0.10 0.14 0.24 0.23 0.33 0.44 0.58 0.44 0.15 0.40 0.89 1.35 0.96 0.22 0.01 0.00 0.00 0.00 0.00 0.00 0.00 0.00 0.00 0.00 0.00 0.00 0.00 0.00 0.00 0.00 0.00 0.00 0.00 0.00 0.00 0.00 0.00 0.00 0.00
0.54 0.46 0.78 0.44 0.24 0.12 0.08 0.12 0.16 0.18 0.27 0.45 0.56 0.70 0.53 0.25 0.23 0.78 1.18 1.12 0.49 0.03 0.00 0.00 0.00 0.00 0.00 0.00 0.00 0.00 0.00 0.00 0.00 0.00 0.00 0.00 0.00 0.00 0.00 0.00 0.00 0.00 0.00 0.00 0.00 0.00 0.00
0.60 0.70 0.66 0.86 0.52 0.31 0.16 0.13 0.19 0.35 0.37 0.46 0.85 0.89 0.52 0.21 0.54 1.27 1.40 0.69 0.24 0.01 0.00 0.00 0.00 0.00 0.00 0.00 0.00 0.00 0.00 0.00 0.00 0.00 0.00 0.00 0.00 0.00 0.00 0.00 0.00 0.00 0.00 0.00 0.00 0.00 0.00
0.51 0.66 0.76 0.81 0.92 0.62 0.43 0.24 0.27 0.45 0.72 0.78 0.94 0.97 0.46 0.33 0.98 1.09 1.00 0.40 0.05 0.00 0.00 0.00 0.00 0.00 0.00 0.00 0.00 0.00 0.00 0.00 0.00 0.00 0.00 0.00 0.00 0.00 0.00 0.00 0.00 0.00 0.00 0.00 0.00 0.00 0.00
0.43 0.61 0.67 0.70 0.96 1.08 0.64 0.52 0.42 0.57 0.94 1.09 1.02 0.85 0.73 0.58 0.91 0.88 0.62 0.19 0.02 0.00 0.00 0.00 0.00 0.00 0.00 0.00 0.00 0.00 0.00 0.00 0.00 0.00 0.00 0.00 0.00 0.00 0.00 0.00 0.00 0.00 0.00 0.00 0.00 0.00 0.00
0.48 0.52 0.59 0.67 0.77 1.13 1.12 0.93 0.68 0.62 0.94 1.47 1.28 1.17 1.43 1.09 0.65 0.61 0.34 0.18 0.04 0.00 0.00 0.00 0.01 0.01 0.02 0.01 0.00 0.00 0.00 0.00 0.00 0.00 0.00 0.00 0.00 0.00 0.00 0.00 0.00 0.00 0.00 0.00 0.00 0.00 0.00
0.44 0.50 0.55 0.60 0.71 0.77 1.17 1.18 1.07 0.91 1.03 2.03 2.19 1.47 1.02 1.05 0.68 0.50 0.25 0.10 0.05 0.02 0.01 0.01 0.02 0.02 0.02 0.03 0.01 0.00 0.00 0.00 0.00 0.00 0.00 0.00 0.00 0.00 0.00 0.00 0.00 0.00 0.00 0.00 0.00 0.00 0.00
0.31 0.40 0.54 0.62 0.63 0.81 0.99 1.22 1.26 1.18 1.53 2.84 2.65 1.51 0.94 0.53 0.42 0.22 0.16 0.08 0.04 0.02 0.03 0.04 0.05 0.02 0.00 0.02 0.01 0.00 0.00 0.00 0.00 0.00 0.00 0.00 0.00 0.00 0.00 0.00 0.00 0.00 0.00 0.00 0.00 0.00 0.00
0.34 0.38 0.48 0.57 0.61 0.76 0.88 1.07 1.19 1.42 2.20 3.37 2.75 1.20 0.82 0.55 0.30 0.36 0.19 0.06 0.01 0.01 0.02 0.03 0.04 0.03 0.03 0.02 0.01 0.01 0.01 0.09 0.02 0.01 0.00 0.01 0.04 0.02 0.00 0.00 0.01 0.01 0.00 0.00 0.00 0.00 0.00
0.22 0.34 0.46 0.61 0.71 0.79 0.91 0.94 1.08 1.55 2.33 2.66 1.85 1.01 0.97 0.82 0.34 0.35 0.11 0.03 0.01 0.00 0.01 0.01 0.01 0.02 0.03 0.01 0.03 0.08 0.13 0.09 0.04 0.01 0.00 0.03 0.05 0.06 0.06 0.07 0.18 0.02 0.00 0.00 0.00 0.00 0.00
0.15 0.24 0.32 0.56 0.69 0.76 0.91 1.01 1.10 1.36 1.97 2.21 1.46 0.98 0.80 0.66 0.26 0.16 0.10 0.06 0.05 0.04 0.03 0.02 0.01 0.01 0.00 0.05 0.47 0.66 0.40 0.25 0.08 0.00 0.00 0.01 0.03 0.19 0.22 0.15 0.07 0.00 0.00 0.00 0.00 0.00 0.00
0.12 0.25 0.34 0.53 0.73 0.75 0.89 1.00 1.03 1.21 1.58 1.96 1.52 1.01 1.03 0.86 0.40 0.09 0.09 0.10 0.14 0.16 0.13 0.05 0.04 0.03 0.09 0.37 1.09 1.39 0.61 0.23 0.04 0.00 0.00 0.00 0.02 0.21 0.64 0.36 0.09 0.00 0.00 0.00 0.00 0.00 0.00
0.13 0.23 0.38 0.55 0.73 0.86 0.94 1.05 0.97 0.96 1.12 1.48 1.46 0.81 0.89 1.05 0.50 0.13 0.14 0.13 0.13 0.20 0.27 0.15 0.09 0.20 0.43 0.93 1.38 1.11 0.53 0.08 0.02 0.00 0.00 0.01 0.02 0.16 0.40 0.34 0.09 0.00 0.00 0.00 0.00 0.00 0.00
0.08 0.11 0.23 0.49 0.67 0.90 0.98 1.02 1.07 0.88 0.83 1.10 1.52 0.88 0.83 0.96 0.63 0.27 0.21 0.21 0.19 0.21 0.33 0.28 0.30 0.50 0.71 1.25 1.55 1.19 0.59 0.19 0.03 0.00 0.01 0.04 0.04 0.06 0.08 0.19 0.19 0.01 0.00 0.00 0.00 0.00 0.00
0.07 0.06 0.16 0.43 0.60 0.76 1.01 0.98 1.04 0.91 0.88 0.89 1.19 1.00 0.91 0.98 0.93 0.46 0.30 0.30 0.31 0.36 0.41 0.48 0.63 0.53 0.74 0.92 0.94 0.68 0.45 0.21 0.07 0.02 0.02 0.15 0.16 0.05 0.03 0.07 0.02 0.00 0.01 0.02 0.00 0.00 0.00

GFSGBSN_prec_precacc24_252.txt.gz
Total_Precipitation_Accumulation
0.04 0.02 0.01 0.01 0.01 0.00 0.00 0.00 0.00 0.00 0.00 0.00 0.00 0.00 0.00 0.00 0.00 0.00 0.00 0.00 0.00 0.00 0.00 0.00 0.00 0.00 0.00 0.00 0.00 0.00 0.00 0.00 0.00 0.00 0.00 0.00 0.00 0.00 0.00 0.00 0.00 0.00 0.00 0.00 0.00 0.00 0.00
0.03 0.03 0.02 0.01 0.01 0.01 0.00 0.00 0.00 0.00 0.00 0.00 0.00 0.00 0.00 0.00 0.00 0.00 0.00 0.00 0.00 0.00 0.00 0.00 0.00 0.00 0.00 0.00 0.00 0.00 0.00 0.00 0.00 0.00 0.00 0.00 0.00 0.00 0.00 0.00 0.00 0.00 0.00 0.00 0.00 0.00 0.00
0.02 0.01 0.01 0.01 0.01 0.00 0.00 0.00 0.00 0.00 0.00 0.00 0.00 0.00 0.00 0.00 0.00 0.00 0.00 0.00 0.00 0.00 0.00 0.00 0.00 0.00 0.00 0.00 0.00 0.00 0.00 0.00 0.00 0.00 0.00 0.00 0.00 0.00 0.00 0.00 0.00 0.00 0.00 0.00 0.00 0.00 0.00
0.05 0.03 0.02 0.01 0.00 0.00 0.00 0.00 0.00 0.00 0.00 0.00 0.00 0.00 0.00 0.00 0.00 0.00 0.00 0.00 0.00 0.00 0.00 0.00 0.00 0.00 0.00 0.00 0.00 0.00 0.00 0.00 0.00 0.00 0.00 0.00 0.00 0.00 0.00 0.00 0.00 0.00 0.00 0.00 0.00 0.00 0.00
0.07 0.08 0.05 0.03 0.02 0.01 0.00 0.00 0.00 0.00 0.00 0.00 0.00 0.00 0.00 0.00 0.00 0.00 0.00 0.00 0.00 0.00 0.00 0.00 0.00 0.00 0.00 0.00 0.00 0.00 0.00 0.00 0.00 0.00 0.00 0.00 0.00 0.00 0.00 0.00 0.00 0.00 0.00 0.00 0.00 0.00 0.00
0.07 0.07 0.08 0.06 0.04 0.02 0.01 0.01 0.00 0.00 0.00 0.00 0.00 0.00 0.00 0.00 0.00 0.00 0.00 0.00 0.00 0.00 0.00 0.00 0.00 0.00 0.00 0.00 0.00 0.00 0.00 0.00 0.00 0.00 0.00 0.00 0.00 0.00 0.00 0.00 0.00 0.00 0.00 0.00 0.00 0.00 0.00
0.07 0.09 0.08 0.07 0.08 0.05 0.02 0.01 0.01 0.00 0.00 0.00 0.00 0.00 0.00 0.00 0.00 0.01 0.00 0.00 0.00 0.00 0.00 0.00 0.00 0.00 0.00 0.00 0.00 0.00 0.00 0.00 0.00 0.00 0.00 0.00 0.00 0.00 0.00 0.00 0.00 0.00 0.00 0.00 0.00 0.00 0.00
0.04 0.07 0.09 0.08 0.07 0.09 0.07 0.04 0.02 0.01 0.01 0.01 0.01 0.00 0.00 0.00 0.01 0.02 0.01 0.00 0.00 0.00 0.00 0.00 0.00 0.00 0.00 0.00 0.00 0.00 0.00 0.00 0.00 0.00 0.00 0.00 0.00 0.00 0.00 0.00 0.00 0.00 0.00 0.00 0.00 0.00 0.00
0.06 0.05 0.06 0.09 0.09 0.07 0.08 0.09 0.06 0.03 0.02 0.02 0.02 0.01 0.01 0.02 0.06 0.05 0.01 0.01 0.00 0.00 0.00 0.00 0.00 0.00 0.00 0.00 0.00 0.00 0.00 0.00 0.00 0.00 0.00 0.00 0.00 0.00 0.00 0.00 0.00 0.00 0.00 0.00 0.00 0.00 0.00
0.04 0.06 0.06 0.06 0.09 0.10 0.08 0.07 0.09 0.09 0.06 0.05 0.05 0.05 0.06 0.16 0.23 0.05 0.01 0.01 0.04 0.03 0.01 0.00 0.00 0.00 0.00 0.00 0.00 0.00 0.00 0.00 0.00 0.00 0.00 0.00 0.00 0.00 0.00 0.00 0.00 0.00 0.00 0.00 0.00 0.00 0.00
0.03 0.06 0.09 0.07 0.06 0.10 0.10 0.09 0.07 0.09 0.12 0.10 0.09 0.12 0.22 0.37 0.28 0.16 0.03 0.01 0.10 0.11 0.28 0.03 0.00 0.00 0.00 0.00 0.00 0.00 0.00 0.00 0.00 0.00 0.00 0.00 0.00 0.00 0.00 0.00 0.00 0.00 0.00 0.00 0.00 0.00 0.00
0.05 0.06 0.08 0.09 0.08 0.05 0.10 0.11 0.11 0.08 0.09 0.17 0.18 0.18 0.28 0.43 0.31 0.07 0.02 0.09 0.23 0.37 0.40 0.03 0.00 0.00 0.00 0.00 0.00 0.00 0.00 0.00 0.00 0.00 0.00 0.00 0.00 0.00 0.00 0.00 0.00 0.00 0.00 0.00 0.00 0.00 0.00
0.11 0.04 0.06 0.06 0.07 0.08 0.05 0.09 0.13 0.12 0.10 0.12 0.26 0.33 0.40 0.34 0.28 0.08 0.18 0.38 0.55 0.62 0.22 0.02 0.00 0.00 0.00 0.00 0.00 0.00 0.00 0.00 0.00 0.00 0.00 0.00 0.00 0.00 0.00 0.00 0.00 0.00 0.00 0.00 0.00 0.00 0.00
0.10 0.13 0.05 0.06 0.05 0.09 0.10 0.07 0.09 0.16 0.15 0.14 0.23 0.39 0.52 0.37 0.14 0.14 0.62 0.94 0.84 0.37 0.10 0.01 0.00 0.00 0.00 0.00 0.00 0.00 0.00 0.00 0.00 0.00 0.00 0.00 0.00 0.00 0.00 0.00 0.00 0.00 0.00 0.00 0.00 0.00 0.00
0.11 0.08 0.12 0.07 0.07 0.07 0.10 0.12 0.11 0.15 0.24 0.24 0.33 0.44 0.58 0.44 0.15 0.40 0.89 1.35 0.96 0.22 0.01 0.00 0.00 0.00 0.00 0.00 0.00 0.00 0.00 0.00 0.00 0.00 0.00 0.00 0.00 0.00 0.00 0.00 0.00 0.00 0.00 0.00 0.00 0.00 0.00
0.24 0.14 0.08 0.12 0.10 0.09 0.08 0.12 0.16 0.18 0.27 0.46 0.56 0.69 0.53 0.25 0.23 0.78 1.16 1.12 0.49 0.03 0.00 0.00 0.00 0.00 0.00 0.00 0.00 0.00 0.00 0.00 0.00 0.00 0.00 0.00 0.00 0.00 0.00 0.00 0.00 0.00 0.00 0.00 0.00 0.00 0.00
0.33 0.27 0.16 0.17 0.20 0.23 0.12 0.11 0.18 0.35 0.38 0.47 0.84 0.87 0.51 0.21 0.55 1.26 1.39 0.69 0.24 0.01 0.00 0.00 0.00 0.00 0.00 0.00 0.00 0.00 0.00 0.00 0.00 0.00 0.00 0.00 0.00 0.00 0.00 0.00 0.00 0.00 0.00 0.00 0.00 0.00 0.00
0.30 0.37 0.27 0.20 0.38 0.39 0.34 0.18 0.22 0.42 0.71 0.76 0.92 0.95 0.45 0.33 0.97 1.08 1.00 0.40 0.05 0.00 0.00 0.00 0.00 0.00 0.00 0.00 0.00 0.00 0.00 0.00 0.00 0.00 0.00 0.00 0.00 0.00 0.00 0.00 0.00 0.00 0.00 0.00 0.00 0.00 0.00
0.29 0.39 0.37 0.30 0.45 0.64 0.47 0.43 0.32 0.41 0.88 1.05 0.96 0.81 0.64 0.61 0.91 0.88 0.61 0.19 0.02 0.00 0.00 0.00 0.00 0.00 0.00 0.00 0.01 0.00 0.00 0.00 0.00 0.00 0.00 0.00 0.00 0.01 0.00 0.00 0.00 0.00 0.00 0.00 0.00 0.00 0.00
0.33 0.37 0.40 0.45 0.45 0.67 0.78 0.70 0.57 0.45 0.67 1.23 1.12 1.03 1.15 0.90 0.64 0.62 0.34 0.18 0.04 0.00 0.00 0.00 0.01 0.01 0.02 0.02 0.01 0.03 0.00 0.00 0.00 0.00 0.00 0.00 0.00 0.01 0.01 0.00 0.00 0.00 0.00 0.00 0.00 0.00 0.00
0.33 0.37 0.44 0.48 0.55 0.54 0.90 0.87 0.85 0.71 0.71 1.43 1.72 1.18 0.80 0.84 0.62 0.50 0.25 0.10 0.04 0.02 0.01 0.01 0.02 0.02 0.02 0.04 0.01 0.01 0.00 0.00 0.00 0.00 0.00 0.00 0.01 0.00 0.00 0.00 0.00 0.00 0.00 0.00 0.00 0.00 0.00
0.29 0.34 0.47 0.56 0.57 0.71 0.82 1.02 1.10 0.97 1.13 2.03 1.95 1.06 0.65 0.35 0.35 0.20 0.16 0.07 0.04 0.02 0.02 0.04 0.05 0.02 0.00 0.02 0.02 0.01 0.00 0.01 0.03 0.04 0.04 0.04 0.04 0.00 0.00 0.00 0.00 0.00 0.00 0.00 0.00 0.00 0.00
0.32 0.36 0.44 0.52 0.58 0.72 0.79 0.92 1.01 1.20 1.88 2.80 2.19 0.89 0.71 0.37 0.16 0.21 0.10 0.05 0.01 0.01 0.02 0.02 0.04 0.03 0.04 0.02 0.01 0.01 0.03 0.07 0.09 0.06 0.11 0.15 0.13 0.05 0.00 0.00 0.00 0.01 0.00 0.00 0.00 0.00 0.00
0.22 0.33 0.45 0.59 0.69 0.78 0.88 0.84 0.94 1.36 2.06 2.37 1.60 0.83 0.92 0.72 0.21 0.19 0.06 0.02 0.00 0.00 0.01 0.01 0.01 0.02 0.03 0.01 0.02 0.05 0.11 0.12 0.07 0.04 0.04 0.16 0.16 0.17 0.11 0.06 0.08 0.02 0.00 0.00 0.00 0.00 0.00
0.15 0.23 0.32 0.56 0.68 0.76 0.90 0.97 1.01 1.22 1.76 2.00 1.25 0.80 0.68 0.61 0.22 0.13 0.08 0.04 0.03 0.02 0.02 0.01 0.01 0.01 0.00 0.05 0.39 0.48 0.29 0.24 0.12 0.02 0.00 0.03 0.07 0.23 0.27 0.21 0.09 0.00 0.00 0.00 0.00 0.00 0.00
0.11 0.24 0.34 0.53 0.74 0.75 0.89 0.99 1.00 1.14 1.43 1.78 1.34 0.84 0.88 0.88 0.37 0.08 0.09 0.08 0.12 0.15 0.13 0.05 0.02 0.02 0.08 0.31 0.88 1.16 0.51 0.23 0.07 0.01 0.00 0.00 0.03 0.21 0.50 0.30 0.12 0.01 0.00 0.00 0.00 0.00 0.00
0.12 0.22 0.38 0.56 0.74 0.88 0.95 1.05 0.96 0.93 1.07 1.45 1.39 0.73 0.81 1.06 0.43 0.10 0.14 0.13 0.13 0.19 0.26 0.15 0.09 0.19 0.41 0.77 1.06 0.91 0.47 0.12 0.07 0.04 0.02 0.03 0.05 0.15 0.33 0.24 0.05 0.00 0.00 0.00 0.00 0.00 0.00
0.09 0.12 0.24 0.50 0.68 0.91 0.99 1.03 1.08 0.89 0.82 1.11 1.55 0.88 0.79 0.99 0.62 0.22 0.17 0.18 0.17 0.19 0.31 0.22 0.26 0.46 0.68 1.16 1.35 0.92 0.45 0.18 0.11 0.04 0.03 0.07 0.06 0.05 0.06 0.15 0.13 0.00 0.00 0.00 0.00 0.00 0.00
0.07 0.07 0.16 0.42 0.60 0.76 1.01 0.99 1.05 0.93 0.90 0.92 1.38 1.09 0.93 0.98 0.90 0.45 0.30 0.28 0.25 0.27 0.30 0.37 0.52 0.47 0.68 0.84 0.83 0.57 0.38 0.23 0.14 0.10 0.04 0.18 0.17 0.05 0.01 0.04 0.01 0.00 0.01 0.02 0.00 0.00 0.00

GFSGBSN_prec_precacc24_255.txt.gz
Total_Precipitation_Accumulation
0.02 0.02 0.01 0.01 0.01 0.00 0.00 0.00 0.00 0.00 0.00 0.00 0.00 0.00 0.00 0.00 0.00 0.00 0.00 0.00 0.00 0.00 0.00 0.00 0.00 0.00 0.00 0.00 0.00 0.00 0.00 0.00 0.00 0.00 0.00 0.00 0.00 0.00 0.00 0.00 0.00 0.00 0.00 0.00 0.00 0.00 0.00
0.01 0.02 0.02 0.01 0.01 0.01 0.00 0.00 0.00 0.00 0.00 0.00 0.00 0.00 0.00 0.00 0.00 0.00 0.00 0.00 0.00 0.00 0.00 0.00 0.00 0.00 0.00 0.00 0.00 0.00 0.00 0.00 0.00 0.00 0.00 0.00 0.00 0.00 0.00 0.00 0.00 0.00 0.00 0.00 0.00 0.00 0.00
0.01 0.01 0.01 0.01 0.01 0.00 0.00 0.00 0.00 0.00 0.00 0.00 0.00 0.00 0.00 0.00 0.00 0.00 0.00 0.00 0.00 0.00 0.00 0.00 0.00 0.00 0.00 0.00 0.00 0.00 0.00 0.00 0.00 0.00 0.00 0.00 0.00 0.00 0.00 0.00 0.00 0.00 0.00 0.00 0.00 0.00 0.00
0.02 0.01 0.01 0.01 0.00 0.00 0.00 0.00 0.00 0.00 0.00 0.00 0.00 0.00 0.00 0.00 0.00 0.00 0.00 0.00 0.00 0.00 0.00 0.00 0.00 0.00 0.00 0.00 0.00 0.00 0.00 0.00 0.00 0.00 0.00 0.00 0.00 0.00 0.00 0.00 0.00 0.00 0.00 0.00 0.00 0.00 0.00
0.02 0.04 0.02 0.02 0.02 0.01 0.00 0.00 0.00 0.00 0.00 0.00 0.00 0.00 0.00 0.00 0.00 0.00 0.00 0.00 0.00 0.00 0.00 0.00 0.00 0.00 0.00 0.00 0.00 0.00 0.00 0.00 0.00 0.00 0.00 0.00 0.00 0.00 0.00 0.00 0.00 0.00 0.00 0.00 0.00 0.00 0.00
0.02 0.02 0.04 0.04 0.04 0.02 0.01 0.01 0.00 0.00 0.00 0.00 0.00 0.00 0.00 0.00 0.00 0.00 0.00 0.00 0.00 0.00 0.00 0.00 0.00 0.00 0.00 0.00 0.00 0.00 0.00 0.00 0.00 0.00 0.00 0.00 0.00 0.00 0.00 0.00 0.00 0.00 0.00 0.00 0.00 0.00 0.00
0.02 0.04 0.03 0.04 0.07 0.05 0.02 0.01 0.01 0.00 0.00 0.00 0.00 0.00 0.00 0.00 0.00 0.01 0.00 0.00 0.00 0.00 0.00 0.00 0.00 0.00 0.00 0.00 0.00 0.00 0.00 0.00 0.00 0.00 0.00 0.00 0.00 0.00 0.00 0.00 0.00 0.00 0.00 0.00 0.00 0.00 0.00
0.01 0.01 0.03 0.04 0.05 0.09 0.07 0.04 0.02 0.01 0.01 0.01 0.01 0.00 0.00 0.00 0.01 0.02 0.01 0.00 0.00 0.00 0.00 0.00 0.00 0.00 0.00 0.00 0.00 0.00 0.00 0.00 0.00 0.00 0.00 0.00 0.00 0.00 0.00 0.00 0.00 0.00 0.00 0.00 0.00 0.00 0.00
0.00 0.01 0.01 0.04 0.05 0.06 0.08 0.09 0.06 0.03 0.02 0.02 0.02 0.01 0.01 0.02 0.06 0.05 0.01 0.01 0.00 0.00 0.00 0.00 0.00 0.00 0.00 0.00 0.00 0.00 0.00 0.00 0.00 0.00 0.00 0.00 0.00 0.00 0.00 0.00 0.00 0.00 0.00 0.00 0.00 0.00 0.00
0.01 0.00 0.00 0.02 0.04 0.07 0.08 0.07 0.09 0.09 0.06 0.05 0.05 0.05 0.06 0.16 0.23 0.05 0.02 0.01 0.04 0.03 0.01 0.00 0.00 0.00 0.00 0.00 0.00 0.00 0.00 0.00 0.00 0.00 0.00 0.00 0.00 0.00 0.00 0.00 0.00 0.00 0.00 0.00 0.00 0.00 0.00
0.02 0.01 0.01 0.01 0.02 0.07 0.09 0.09 0.07 0.09 0.12 0.10 0.09 0.12 0.22 0.37 0.28 0.16 0.03 0.01 0.10 0.11 0.28 0.03 0.00 0.00 0.00 0.00 0.00 0.00 0.00 0.00 0.00 0.00 0.00 0.00 0.00 0.00 0.00 0.00 0.00 0.00 0.00 0.00 0.00 0.00 0.00
0.02 0.02 0.02 0.02 0.01 0.03 0.09 0.11 0.11 0.08 0.09 0.17 0.18 0.18 0.28 0.43 0.31 0.07 0.02 0.09 0.23 0.37 0.40 0.03 0.00 0.00 0.00 0.00 0.00 0.00 0.00 0.00 0.00 0.00 0.00 0.00 0.00 0.00 0.00 0.00 0.00 0.00 0.00 0.00 0.00 0.00 0.00
0.02 0.01 0.01 0.01 0.01 0.01 0.04 0.09 0.13 0.12 0.10 0.12 0.26 0.33 0.40 0.34 0.28 0.08 0.18 0.38 0.55 0.62 0.22 0.02 0.00 0.00 0.00 0.00 0.00 0.00 0.00 0.00 0.00 0.00 0.00 0.00 0.00 0.00 0.00 0.00 0.00 0.00 0.00 0.00 0.00 0.00 0.00
0.02 0.01 0.01 0.01 0.01 0.02 0.04 0.05 0.08 0.16 0.15 0.14 0.23 0.39 0.52 0.37 0.14 0.14 0.62 0.95 0.84 0.37 0.10 0.01 0.00 0.00 0.00 0.00 0.00 0.00 0.00 0.00 0.00 0.00 0.00 0.00 0.00 0.00 0.00 0.00 0.00 0.00 0.00 0.00 0.00 0.00 0.00
0.02 0.02 0.02 0.04 0.04 0.03 0.05 0.10 0.10 0.15 0.24 0.24 0.33 0.43 0.57 0.44 0.15 0.40 0.89 1.35 0.96 0.22 0.01 0.00 0.00 0.00 0.00 0.00 0.00 0.00 0.00 0.00 0.00 0.00 0.00 0.00 0.00 0.00 0.00 0.00 0.00 0.00 0.00 0.00 0.00 0.00 0.00
0.03 0.03 0.02 0.04 0.06 0.04 0.05 0.11 0.15 0.18 0.27 0.46 0.56 0.66 0.51 0.25 0.23 0.78 1.14 1.12 0.49 0.03 0.00 0.00 0.00 0.00 0.00 0.00 0.00 0.00 0.00 0.00 0.00 0.00 0.00 0.00 0.00 0.00 0.00 0.00 0.00 0.00 0.00 0.00 0.00 0.00 0.00
0.06 0.06 0.04 0.04 0.10 0.09 0.07 0.09 0.17 0.35 0.39 0.47 0.83 0.85 0.50 0.19 0.54 1.24 1.38 0.69 0.24 0.01 0.00 0.00 0.00 0.00 0.00 0.00 0.00 0.00 0.00 0.00 0.00 0.00 0.00 0.00 0.00 0.00 0.00 0.00 0.00 0.00 0.00 0.00 0.00 0.00 0.00
0.05 0.11 0.08 0.05 0.07 0.15 0.14 0.11 0.19 0.42 0.72 0.75 0.90 0.94 0.42 0.30 0.94 1.07 1.00 0.40 0.05 0.00 0.00 0.00 0.00 0.00 0.00 0.00 0.00 0.00 0.00 0.00 0.00 0.00 0.00 0.00 0.00 0.00 0.00 0.00 0.00 0.00 0.00 0.00 0.00 0.00 0.00
0.08 0.13 0.16 0.12 0.08 0.10 0.15 0.16 0.22 0.41 0.89 1.07 0.95 0.76 0.55 0.59 0.91 0.87 0.61 0.19 0.02 0.00 0.00 0.00 0.00 0.00 0.00 0.00 0.01 0.00 0.00 0.00 0.00 0.00 0.00 0.00 0.01 0.03 0.01 0.00 0.00 0.00 0.00 0.00 0.00 0.00 0.00
0.12 0.16 0.22 0.25 0.22 0.12 0.15 0.28 0.33 0.41 0.66 1.26 1.10 0.99 1.01 0.84 0.65 0.62 0.34 0.18 0.04 0.00 0.00 0.00 0.01 0.01 0.02 0.02 0.01 0.03 0.00 0.00 0.00 0.00 0.00 0.01 0.01 0.03 0.02 0.00 0.00 0.00 0.00 0.00 0.00 0.00 0.00
0.15 0.19 0.26 0.33 0.40 0.24 0.15 0.19 0.47 0.57 0.66 1.41 1.69 1.17 0.78 0.82 0.63 0.50 0.25 0.10 0.04 0.02 0.01 0.01 0.02 0.02 0.02 0.04 0.01 0.01 0.00 0.00 0.00 0.00 0.01 0.05 0.06 0.02 0.00 0.00 0.00 0.00 0.00 0.00 0.00 0.00 0.00
0.17 0.22 0.32 0.42 0.45 0.50 0.32 0.24 0.40 0.61 0.88 1.82 1.87 1.05 0.66 0.35 0.34 0.20 0.16 0.08 0.04 0.02 0.02 0.04 0.05 0.02 0.00 0.02 0.02 0.01 0.00 0.01 0.03 0.04 0.10 0.20 0.22 0.03 0.00 0.00 0.00 0.00 0.00 0.00 0.00 0.00 0.00
0.18 0.26 0.34 0.40 0.48 0.59 0.52 0.42 0.39 0.57 1.17 2.11 1.78 0.77 0.70 0.36 0.15 0.20 0.11 0.06 0.01 0.01 0.02 0.02 0.04 0.03 0.04 0.02 0.01 0.01 0.02 0.05 0.09 0.06 0.12 0.26 0.32 0.25 0.09 0.00 0.02 0.02 0.00 0.00 0.00 0.00 0.00
0.14 0.23 0.36 0.47 0.60 0.69 0.71 0.56 0.55 0.70 1.13 1.56 1.03 0.54 0.77 0.64 0.17 0.19 0.07 0.02 0.01 0.00 0.01 0.01 0.01 0.02 0.03 0.01 0.02 0.03 0.06 0.08 0.06 0.04 0.04 0.18 0.24 0.36 0.25 0.07 0.13 0.05 0.00 0.00 0.00 0.00 0.00
0.10 0.19 0.27 0.47 0.58 0.69 0.79 0.81 0.77 0.84 1.21 1.50 0.80 0.52 0.46 0.48 0.16 0.09 0.06 0.03 0.04 0.01 0.01 0.00 0.00 0.01 0.00 0.05 0.28 0.33 0.20 0.17 0.08 0.02 0.00 0.03 0.09 0.33 0.40 0.27 0.14 0.01 0.00 0.00 0.00 0.00 0.00
0.09 0.21 0.31 0.48 0.66 0.70 0.86 0.93 0.88 0.93 1.17 1.57 1.10 0.60 0.66 0.75 0.28 0.04 0.06 0.04 0.05 0.07 0.05 0.01 0.00 0.00 0.04 0.21 0.57 0.85 0.38 0.19 0.06 0.01 0.00 0.00 0.03 0.20 0.50 0.42 0.22 0.01 0.00 0.00 0.00 0.00 0.00
0.12 0.21 0.36 0.54 0.71 0.85 0.94 1.05 0.95 0.84 0.95 1.38 1.29 0.61 0.69 0.92 0.33 0.05 0.07 0.09 0.06 0.11 0.15 0.08 0.04 0.11 0.25 0.52 0.80 0.71 0.39 0.10 0.07 0.04 0.03 0.06 0.08 0.17 0.27 0.30 0.10 0.00 0.00 0.00 0.01 0.01 0.00
0.09 0.12 0.24 0.49 0.68 0.91 1.00 1.05 1.10 0.90 0.80 1.09 1.51 0.80 0.69 0.84 0.48 0.14 0.07 0.09 0.12 0.16 0.28 0.19 0.27 0.38 0.60 0.95 1.08 0.75 0.38 0.15 0.10 0.04 0.04 0.16 0.28 0.23 0.09 0.15 0.13 0.00 0.00 0.00 0.00 0.00 0.00
0.08 0.08 0.16 0.42 0.59 0.75 1.01 0.99 1.06 0.94 0.92 0.95 1.48 1.09 0.85 0.87 0.78 0.36 0.20 0.17 0.15 0.17 0.22 0.31 0.52 0.46 0.65 0.80 0.78 0.51 0.31 0.20 0.15 0.12 0.04 0.18 0.27 0.24 0.14 0.08 0.01 0.00 0.01 0.02 0.00 0.00 0.00

GFSGBSN_prec_precacc24_258.txt.gz
Total_Precipitation_Accumulation
0.01 0.00 0.00 0.00 0.01 0.00 0.00 0.00 0.00 0.00 0.00 0.00 0.00 0.00 0.00 0.00 0.00 0.00 0.00 0.00 0.00 0.00 0.00 0.00 0.00 0.00 0.00 0.00 0.00 0.00 0.00 0.00 0.00 0.00 0.00 0.00 0.00 0.00 0.00 0.00 0.00 0.00 0.00 0.00 0.00 0.00 0.00
0.00 0.00 0.00 0.00 0.00 0.01 0.00 0.00 0.00 0.00 0.00 0.00 0.00 0.00 0.00 0.00 0.00 0.00 0.00 0.00 0.00 0.00 0.00 0.00 0.00 0.00 0.00 0.00 0.00 0.00 0.00 0.00 0.00 0.00 0.00 0.00 0.00 0.00 0.00 0.00 0.00 0.00 0.00 0.00 0.00 0.00 0.00
0.00 0.00 0.00 0.00 0.00 0.00 0.00 0.00 0.00 0.00 0.00 0.00 0.00 0.00 0.00 0.00 0.00 0.00 0.00 0.00 0.00 0.00 0.00 0.00 0.00 0.00 0.00 0.00 0.00 0.00 0.00 0.00 0.00 0.00 0.00 0.00 0.00 0.00 0.00 0.00 0.00 0.00 0.00 0.00 0.00 0.00 0.00
0.00 0.00 0.00 0.00 0.00 0.00 0.00 0.00 0.00 0.00 0.00 0.00 0.00 0.00 0.00 0.00 0.00 0.00 0.00 0.00 0.00 0.00 0.00 0.00 0.00 0.00 0.00 0.00 0.00 0.00 0.00 0.00 0.00 0.00 0.00 0.00 0.00 0.00 0.00 0.00 0.00 0.00 0.00 0.00 0.00 0.00 0.00
0.00 0.00 0.00 0.00 0.00 0.00 0.00 0.00 0.00 0.00 0.00 0.00 0.00 0.00 0.00 0.00 0.00 0.00 0.00 0.00 0.00 0.00 0.00 0.00 0.00 0.00 0.00 0.00 0.00 0.00 0.00 0.00 0.00 0.00 0.00 0.00 0.00 0.00 0.00 0.00 0.00 0.00 0.00 0.00 0.00 0.00 0.00
0.01 0.00 0.00 0.01 0.01 0.01 0.00 0.01 0.00 0.00 0.00 0.00 0.00 0.00 0.00 0.00 0.00 0.00 0.00 0.00 0.00 0.00 0.00 0.00 0.00 0.00 0.00 0.00 0.00 0.00 0.00 0.00 0.00 0.00 0.00 0.00 0.00 0.00 0.00 0.00 0.00 0.00 0.00 0.00 0.00 0.00 0.00
0.02 0.02 0.01 0.01 0.02 0.02 0.01 0.01 0.01 0.00 0.00 0.00 0.00 0.00 0.00 0.00 0.00 0.01 0.00 0.00 0.00 0.00 0.00 0.00 0.00 0.00 0.00 0.00 0.00 0.00 0.00 0.00 0.00 0.00 0.00 0.00 0.00 0.00 0.00 0.00 0.00 0.00 0.00 0.00 0.00 0.00 0.00
0.01 0.01 0.01 0.00 0.00 0.02 0.04 0.02 0.02 0.01 0.01 0.01 0.01 0.00 0.00 0.00 0.01 0.02 0.01 0.00 0.00 0.00 0.00 0.00 0.00 0.00 0.00 0.00 0.00 0.00 0.00 0.00 0.00 0.00 0.00 0.00 0.00 0.00 0.00 0.00 0.00 0.00 0.00 0.00 0.00 0.00 0.00
0.00 0.00 0.00 0.00 0.00 0.00 0.02 0.06 0.05 0.03 0.02 0.02 0.02 0.01 0.01 0.02 0.06 0.05 0.01 0.01 0.00 0.00 0.00 0.00 0.00 0.00 0.00 0.00 0.00 0.00 0.00 0.00 0.00 0.00 0.00 0.00 0.00 0.00 0.00 0.00 0.00 0.00 0.00 0.00 0.00 0.00 0.00
0.00 0.00 0.00 0.00 0.00 0.00 0.00 0.03 0.07 0.08 0.06 0.05 0.05 0.05 0.06 0.16 0.23 0.05 0.02 0.01 0.04 0.03 0.01 0.00 0.00 0.00 0.00 0.00 0.00 0.00 0.00 0.00 0.00 0.00 0.00 0.00 0.00 0.00 0.00 0.00 0.00 0.00 0.00 0.00 0.00 0.00 0.00
0.01 0.01 0.01 0.00 0.00 0.00 0.00 0.01 0.03 0.08 0.12 0.10 0.09 0.12 0.22 0.37 0.28 0.16 0.03 0.01 0.10 0.11 0.28 0.03 0.00 0.00 0.00 0.00 0.00 0.00 0.00 0.00 0.00 0.00 0.00 0.00 0.00 0.00 0.00 0.00 0.00 0.00 0.00 0.00 0.00 0.00 0.00
0.01 0.01 0.01 0.01 0.01 0.00 0.01 0.01 0.03 0.05 0.09 0.17 0.18 0.18 0.28 0.43 0.31 0.07 0.02 0.09 0.23 0.37 0.40 0.03 0.00 0.00 0.00 0.00 0.00 0.00 0.00 0.00 0.00 0.00 0.00 0.00 0.00 0.00 0.00 0.00 0.00 0.00 0.00 0.00 0.00 0.00 0.00
0.01 0.00 0.01 0.01 0.01 0.00 0.00 0.01 0.02 0.07 0.10 0.12 0.26 0.33 0.40 0.34 0.28 0.08 0.18 0.38 0.55 0.62 0.22 0.02 0.00 0.00 0.00 0.00 0.00 0.00 0.00 0.00 0.00 0.00 0.00 0.00 0.00 0.00 0.00 0.00 0.00 0.00 0.00 0.00 0.00 0.00 0.00
0.01 0.01 0.00 0.00 0.01 0.01 0.00 0.00 0.01 0.06 0.13 0.14 0.23 0.39 0.52 0.37 0.14 0.14 0.62 0.95 0.84 0.37 0.10 0.01 0.00 0.00 0.00 0.00 0.00 0.00 0.00 0.00 0.00 0.00 0.00 0.00 0.00 0.00 0.00 0.00 0.00 0.00 0.00 0.00 0.00 0.00 0.00
0.02 0.02 0.01 0.02 0.02 0.01 0.01 0.01 0.01 0.05 0.20 0.23 0.33 0.42 0.56 0.44 0.15 0.38 0.88 1.35 0.96 0.22 0.01 0.00 0.00 0.00 0.00 0.00 0.00 0.00 0.00 0.00 0.00 0.00 0.00 0.00 0.00 0.00 0.00 0.00 0.00 0.00 0.00 0.00 0.00 0.00 0.00
0.02 0.03 0.01 0.01 0.01 0.01 0.02 0.02 0.01 0.03 0.19 0.44 0.55 0.63 0.49 0.24 0.20 0.72 1.09 1.12 0.49 0.03 0.00 0.00 0.00 0.00 0.00 0.00 0.00 0.00 0.00 0.00 0.00 0.00 0.00 0.00 0.01 0.01 0.00 0.00 0.00 0.00 0.00 0.00 0.00 0.00 0.00
0.02 0.03 0.02 0.02 0.01 0.01 0.01 0.01 0.02 0.05 0.18 0.43 0.79 0.81 0.49 0.16 0.47 1.13 1.35 0.69 0.24 0.01 0.00 0.00 0.00 0.00 0.00 0.00 0.00 0.00 0.00 0.00 0.00 0.00 0.00 0.00 0.00 0.00 0.00 0.00 0.00 0.00 0.00 0.00 0.00 0.00 0.00
0.02 0.02 0.02 0.02 0.01 0.02 0.01 0.02 0.04 0.08 0.33 0.58 0.87 0.92 0.40 0.24 0.88 1.06 1.00 0.40 0.05 0.00 0.00 0.00 0.00 0.00 0.00 0.00 0.00 0.00 0.00 0.00 0.00 0.00 0.00 0.00 0.00 0.01 0.00 0.00 0.00 0.00 0.00 0.00 0.02 0.04 0.00
0.06 0.05 0.04 0.04 0.04 0.04 0.03 0.03 0.07 0.12 0.40 0.76 0.94 0.71 0.43 0.54 0.90 0.87 0.61 0.19 0.02 0.00 0.00 0.00 0.00 0.00 0.00 0.00 0.01 0.00 0.00 0.00 0.00 0.00 0.01 0.00 0.01 0.04 0.01 0.00 0.00 0.00 0.00 0.00 0.00 0.01 0.02
0.08 0.08 0.07 0.06 0.07 0.08 0.08 0.11 0.14 0.16 0.27 0.91 1.07 0.92 0.85 0.73 0.65 0.62 0.34 0.18 0.04 0.00 0.00 0.00 0.01 0.01 0.02 0.02 0.01 0.03 0.00 0.00 0.00 0.00 0.00 0.01 0.02 0.05 0.03 0.00 0.00 0.00 0.00 0.00 0.00 0.00 0.01
0.09 0.09 0.08 0.07 0.06 0.07 0.08 0.11 0.20 0.30 0.38 1.08 1.62 1.16 0.74 0.80 0.63 0.50 0.25 0.10 0.04 0.02 0.01 0.01 0.02 0.02 0.02 0.04 0.01 0.01 0.00 0.00 0.00 0.00 0.01 0.05 0.08 0.03 0.01 0.00 0.00 0.00 0.00 0.00 0.00 0.00 0.00
0.09 0.11 0.12 0.13 0.12 0.12 0.14 0.16 0.22 0.26 0.58 1.51 1.81 1.04 0.65 0.35 0.34 0.20 0.16 0.08 0.04 0.02 0.02 0.04 0.05 0.02 0.00 0.02 0.02 0.01 0.00 0.01 0.03 0.04 0.10 0.20 0.23 0.05 0.01 0.00 0.00 0.01 0.00 0.00 0.00 0.00 0.00
0.12 0.13 0.13 0.14 0.15 0.17 0.16 0.16 0.21 0.30 0.74 1.70 1.71 0.76 0.70 0.36 0.14 0.19 0.11 0.06 0.02 0.01 0.02 0.02 0.04 0.03 0.04 0.03 0.01 0.02 0.02 0.05 0.09 0.06 0.12 0.26 0.32 0.28 0.12 0.00 0.03 0.04 0.00 0.00 0.00 0.00 0.00
0.07 0.13 0.19 0.23 0.29 0.31 0.22 0.15 0.16 0.28 0.57 1.12 0.94 0.51 0.74 0.63 0.16 0.19 0.07 0.03 0.01 0.01 0.01 0.01 0.01 0.02 0.03 0.01 0.02 0.03 0.06 0.08 0.06 0.04 0.04 0.18 0.23 0.36 0.26 0.07 0.18 0.06 0.00 0.00 0.00 0.00 0.00
0.04 0.09 0.17 0.23 0.28 0.33 0.33 0.33 0.21 0.21 0.41 0.98 0.63 0.52 0.47 0.49 0.16 0.08 0.06 0.03 0.04 0.02 0.01 0.00 0.00 0.01 0.00 0.05 0.29 0.33 0.19 0.16 0.08 0.02 0.00 0.03 0.08 0.29 0.35 0.24 0.16 0.01 0.00 0.00 0.01 0.00 0.00
0.06 0.10 0.24 0.34 0.40 0.44 0.47 0.47 0.42 0.33 0.36 0.98 0.80 0.53 0.67 0.77 0.30 0.04 0.03 0.02 0.05 0.07 0.05 0.02 0.00 0.00 0.04 0.24 0.58 0.80 0.33 0.16 0.05 0.01 0.00 0.00 0.03 0.13 0.29 0.30 0.21 0.02 0.00 0.01 0.02 0.02 0.00
0.10 0.12 0.27 0.46 0.52 0.62 0.68 0.70 0.56 0.44 0.51 1.05 1.04 0.52 0.68 0.89 0.32 0.05 0.07 0.08 0.05 0.09 0.16 0.08 0.03 0.10 0.23 0.50 0.68 0.55 0.31 0.08 0.06 0.04 0.03 0.05 0.07 0.11 0.13 0.19 0.09 0.00 0.00 0.02 0.06 0.05 0.02
0.09 0.08 0.16 0.43 0.53 0.68 0.77 0.85 0.86 0.63 0.52 0.86 1.30 0.69 0.65 0.78 0.41 0.09 0.03 0.04 0.08 0.15 0.27 0.18 0.26 0.23 0.43 0.78 0.83 0.46 0.25 0.09 0.10 0.04 0.03 0.13 0.27 0.22 0.09 0.12 0.09 0.00 0.00 0.01 0.03 0.01 0.02
0.08 0.07 0.14 0.37 0.51 0.62 0.83 0.84 0.94 0.79 0.72 0.77 1.32 0.98 0.75 0.78 0.70 0.26 0.10 0.07 0.07 0.06 0.12 0.18 0.43 0.27 0.49 0.63 0.51 0.37 0.24 0.16 0.15 0.12 0.03 0.11 0.18 0.22 0.16 0.12 0.02 0.00 0.02 0.03 0.02 0.01 0.05